TimeHST,TemperatureF,Dew PointF,Humidity,Sea Level PressureIn,VisibilityMPH,Wind Direction,Wind SpeedMPH,Gust SpeedMPH,PrecipitationIn,Events,Conditions,WindDirDegrees,DateUTC
12:53 AM,73.0,66.9,81,29.88,10.0,WNW,5.8,-,N/A,,Mostly Cloudy,290,2012-10-07 10:53:00
1:53 AM,72.0,66.0,81,29.87,10.0,West,6.9,-,N/A,,Mostly Cloudy,280,2012-10-07 11:53:00
2:53 AM,72.0,68.0,87,29.86,10.0,WNW,4.6,-,N/A,,Overcast,290,2012-10-07 12:53:00
3:53 AM,72.0,68.0,87,29.84,10.0,WSW,4.6,-,N/A,,Clear,240,2012-10-07 13:53:00
4:53 AM,71.1,68.0,90,29.83,10.0,West,5.8,-,N/A,,Clear,270,2012-10-07 14:53:00
5:53 AM,70.0,66.9,90,29.84,10.0,WNW,5.8,-,N/A,,Clear,290,2012-10-07 15:53:00
6:53 AM,70.0,66.9,90,29.86,10.0,WNW,5.8,-,N/A,,Clear,290,2012-10-07 16:53:00
7:53 AM,73.9,68.0,82,29.87,10.0,WNW,3.5,-,N/A,,Clear,290,2012-10-07 17:53:00
8:53 AM,80.1,68.0,67,29.88,10.0,Calm,Calm,-,N/A,,Mostly Cloudy,0,2012-10-07 18:53:00
9:53 AM,82.0,68.0,62,29.89,10.0,WSW,6.9,-,N/A,,Mostly Cloudy,240,2012-10-07 19:53:00
10:53 AM,82.9,70.0,65,29.88,10.0,South,8.1,-,N/A,,Mostly Cloudy,190,2012-10-07 20:53:00
11:53 AM,82.0,70.0,67,29.86,10.0,SW,10.4,-,0.00,Rain,Light Rain,220,2012-10-07 21:53:00
12:53 PM,86.0,69.1,57,29.84,10.0,WSW,13.8,-,0.00,,Mostly Cloudy,250,2012-10-07 22:53:00
1:00 PM,84.2,69.8,62,29.84,10.0,SW,13.8,-,N/A,,Scattered Clouds,220,2012-10-07 23:00:00
1:53 PM,86.0,69.1,57,29.82,10.0,SSW,13.8,-,N/A,,Overcast,210,2012-10-07 23:53:00
2:53 PM,87.1,68.0,53,29.81,10.0,SW,13.8,21.9,N/A,,Mostly Cloudy,220,2012-10-08 00:53:00
3:53 PM,84.0,68.0,58,29.81,10.0,SW,18.4,24.2,N/A,,Mostly Cloudy,230,2012-10-08 01:53:00
4:53 PM,82.9,69.1,63,29.81,10.0,SW,11.5,-,N/A,,Scattered Clouds,220,2012-10-08 02:53:00
5:53 PM,80.1,69.1,69,29.83,10.0,SSW,10.4,-,N/A,,Clear,200,2012-10-08 03:53:00
6:53 PM,79.0,69.1,72,29.85,10.0,SSW,10.4,-,N/A,,Mostly Cloudy,210,2012-10-08 04:53:00
7:53 PM,78.1,70.0,76,29.87,10.0,SSW,12.7,-,N/A,,Scattered Clouds,210,2012-10-08 05:53:00
8:53 PM,75.9,71.1,85,29.88,10.0,SW,8.1,-,0.04,,Clear,230,2012-10-08 06:53:00
9:53 PM,77.0,71.1,82,29.89,10.0,SW,8.1,-,N/A,,Overcast,230,2012-10-08 07:53:00
10:53 PM,77.0,71.1,82,29.89,10.0,SW,8.1,-,N/A,,Overcast,230,2012-10-08 08:53:00
11:53 PM,77.0,72.0,84,29.88,10.0,SW,10.4,-,N/A,,Mostly Cloudy,230,2012-10-08 09:53:00